Simultaneous Nadir Overpasses (SNOs) Predictions

Prediction of SNOs between GOES-15 and METOP-A Satellite Orbit:

Table of predicted SNOs for the next 14.0 days since TLE Epoch: 6/10/2016
Index Date Time (GOES-15) GOES-15 Lat,Lon METOP-A Lat,Lon Distance(km) Time Diff (sec)
1 06/10/2016 06:43:31 0.12,-135.24 -0.51,-138.18 334.16 80
2 06/11/2016 06:20:12 0.13,-135.27 0.60,-133.18 237.56 80
3 06/12/2016 18:41:43 -0.12,-135.30 0.42,-137.74 278.78 80
4 06/13/2016 18:18:24 -0.13,-135.32 -0.69,-132.75 292.94 80
5 06/15/2016 06:40:04 0.12,-135.37 -0.34,-137.34 225.38 80
6 06/16/2016 06:16:45 0.13,-135.39 0.83,-132.36 345.78 80
7 06/17/2016 18:38:16 -0.12,-135.41 0.24,-136.91 171.70 80
8 06/18/2016 18:14:57 -0.13,-135.43 -0.93,-131.93 399.19 80
9 06/20/2016 06:36:38 0.12,-135.46 -0.10,-136.52 120.29 80
10 06/21/2016 06:13:18 0.13,-135.48 1.01,-131.53 449.86 80
11 06/22/2016 18:34:49 -0.12,-135.48 -0.01,-136.09 69.12 80




NCC Satellite Simultaneous Nadir Overpasses (SNOs) Prediction Service
